Regional Weather Roundup
Issued by NWS

Home | Current Version | Previous Version | Text Only | Print | Product List | Glossary On
Versions: 1 2 3 4 5 6 7 8 9 10 11 12 13 14 15 16 17 18 19 20 21 22 23 24 25 26 27 28 29 30 31 32 33 34 35 36 37 38 39 40 41 42 43 44 45 46 47 48 49 50
000
ASUS43 KDTX 261801
RWRMI
MICHIGAN HOURLY REGIONAL WEATHER ROUNDUP
NATIONAL WEATHER SERVICE DETROIT/PONTIAC MI
100 PM EST MON JAN 26 2015

NOTE: "FAIR" INDICATES FEW OR NO CLOUDS BELOW 12,000 FEET WITH NO
SIGNIFICANT WEATHER AND/OR OBSTRUCTION TO VISIBILITY.

MIZ047>049-052>055-059>063-066>070-074>076-081>083-261900-
SOUTHEAST LOWER MICHIGAN

CITY           SKY/WX    TMP DP  RH WIND       PRES   REMARKS
ADRIAN         SUNNY     21   7  54 NE5       29.91F WCI  15
6HR MIN TEMP:   8; 6HR MAX TEMP:  22;

ALMA           MOSUNNY   19   9  63 E6        29.94F WCI  11
ANN ARBOR      SUNNY     24   7  48 NE7       29.90F WCI  16
BAD AXE        MOSUNNY   19  14  81 NE7       29.95F WCI   9
6HR MIN TEMP:  -2; 6HR MAX TEMP:  19;

CARO           SUNNY     23  10  56 SE3       29.92F
DETROIT CITY   SUNNY     25   8  48 N8        29.92F WCI  16
6HR MIN TEMP:  11; 6HR MAX TEMP:  25;

DETROIT        MOSUNNY   24   9  52 N9        29.92F WCI  14
6HR MIN TEMP:  11; 6HR MAX TEMP:  24;

FLINT          SUNNY     23  10  57 CALM      29.92F
6HR MIN TEMP:  10; 6HR MAX TEMP:  23;

GROSSE ILE     SUNNY     21  10  63 NE8       29.91F WCI  12
HILLSDALE      SUNNY     21   8  56 CALM      29.88F
HOWELL         SUNNY     21   9  61 N5        29.90F WCI  14
6HR MIN TEMP:   8; 6HR MAX TEMP:  21;


CITY           SKY/WX    TMP DP  RH WIND       PRES   REMARKS
JACKSON        SUNNY     22   7  52 CALM      29.90F
6HR MIN TEMP:   8; 6HR MAX TEMP:  22;

LAMBERTVILLE   SUNNY     23  10  58 NE3       29.91F
LANSING        MOSUNNY   21   8  57 E5        29.92F WCI  15
6HR MIN TEMP:   8; 6HR MAX TEMP:  21;

LAPEER         FAIR      20  11  66 E6        29.92F WCI  13
MASON          SUNNY     19   8  61 CALM      29.91F
MONROE         SUNNY     21  10  63 CALM      29.90F
MT. CLEMENS    MOSUNNY   23  11  61 E6        29.89F WCI  15
6HR MIN TEMP:   8; 6HR MAX TEMP:  23;

PONTIAC        PTSUNNY   21   9  59 E9        29.89F WCI  11
6HR MIN TEMP:   6; 6HR MAX TEMP:  22;

PORT HOPE        N/A     19  13  77 E10       29.95F WCI   7
6HR MIN TEMP:  17; 6HR MAX TEMP:  20;

PORT HURON     SUNNY     21  14  73 NE10G17   29.93F WCI  10
TRI CITIES     SUNNY     22   9  57 E6        29.96F WCI  14
6HR MIN TEMP:   7; 6HR MAX TEMP:  22;

TROY           SUNNY     24  10  54 CALM      29.93F
SAGINAW HB     SUNNY     23  12  63 NE7       29.95F WCI  15
$$
MIZ043>046-050>051-056>058-064>065-071>073-077>080-261900-
SOUTHWEST LOWER MICHIGAN

CITY           SKY/WX    TMP DP  RH WIND       PRES   REMARKS
BATTLE CREEK   PTSUNNY   21   7  54 W3        29.91F
6HR MIN TEMP:   9; 6HR MAX TEMP:  22;

BENTON HARBOR  MOSUNNY   21  11  65 SE3       29.92F
6HR MIN TEMP:   9; 6HR MAX TEMP:  21;

BIG RAPIDS     MOSUNNY   19  10  67 SE6       29.91F WCI  11
6HR MIN TEMP:  -1; 6HR MAX TEMP:  19;

COLDWATER      MOSUNNY   23   8  53 CALM      29.91F
6HR MIN TEMP:   6; 6HR MAX TEMP:  23;

FREMONT        FAIR      18   5  55 SE6       29.92F WCI  10
HOLLAND        MOSUNNY   21   9  59 SE6       29.93F WCI  13
6HR MIN TEMP:  11; 6HR MAX TEMP:  21;

GRAND RAPIDS   CLOUDY    20   9  62 E8        29.92F WCI  10
6HR MIN TEMP:   8; 6HR MAX TEMP:  20;

IONIA          MOCLDY    20  10  67 E5        29.92F WCI  13
KALAMAZOO      PTSUNNY   20   7  57 CALM      29.92F
6HR MIN TEMP:   8; 6HR MAX TEMP:  21;

LUDINGTON      CLOUDY    21   8  59 SE6       29.93F WCI  13
6HR MIN TEMP:   5; 6HR MAX TEMP:  21;

MARSHALL       MOSUNNY   20   6  53 CALM      29.90F
MOUNT PLEASANT MOSUNNY   21   9  58 E9        29.93F WCI  11
6HR MIN TEMP:   2; 6HR MAX TEMP:  22;

MUSKEGON       PTSUNNY   20   8  60 E7        29.94F WCI  11
6HR MIN TEMP:   9; 6HR MAX TEMP:  20;

SOUTH HAVEN    SUNNY     23   7  50 CALM      29.92F
$$
MIZ016>042-261900-
NORTHERN LOWER MICHIGAN

CITY           SKY/WX    TMP DP  RH WIND       PRES   REMARKS
ALPENA         CLOUDY    19  11  70 E10       29.98F WCI   7
6HR MIN TEMP:  -2; 6HR MAX TEMP:  20; 6HR PCP: TRACE;

BEAVER ISLAND  MOSUNNY   19  11  70 SE7       29.95F WCI  10
6HR MIN TEMP:   0; 6HR MAX TEMP:  19;

BELLAIRE       PTSUNNY   22   9  58 E7        29.96F WCI  14
6HR MIN TEMP:  -7; 6HR MAX TEMP:  22;

CADILLAC       MOSUNNY   17   9  71 SE6       29.89S WCI   8
CHARLEVOIX     CLOUDY    18  11  72 E5        29.98F WCI  11
6HR MIN TEMP:  -1; 6HR MAX TEMP:  18;

FRANKFORT      PTSUNNY   21  12  67 SE7       29.93F WCI  12
GAYLORD        PTSUNNY   17   8  67 SE7       29.90F WCI   8
6HR MIN TEMP: -13; 6HR MAX TEMP:  17;

GRAYLING       MOSUNNY   19   8  61 SE5       29.92F WCI  12
6HR MIN TEMP: -12; 6HR MAX TEMP:  19;

HARBOR SPRINGS PTSUNNY   19   9  64 E5        29.96S WCI  12
HOUGHTON LAKE  MOSUNNY   20   7  57 NE6       29.91F WCI  12
6HR MIN TEMP:  -9; 6HR MAX TEMP:  20;

MANISTEE       PTSUNNY   19   7  58 S7        29.94F WCI  10
OSCODA         CLOUDY    22  12  64 E10       29.96F WCI  11
PELLSTON       PTSUNNY   17   9  70 SE6       29.97F WCI   9
6HR MIN TEMP: -15; 6HR MAX TEMP:  17;

ROGERS CITY    CLOUDY    20  14  77 SE8       29.99F WCI  11
TRAVERSE CITY  CLOUDY    23  11  60 SE6       29.93F WCI  16
6HR MIN TEMP:   0; 6HR MAX TEMP:  23;

$$
MIZ007>008-015-261900-
EASTERN UPPER MICHIGAN

CITY           SKY/WX    TMP DP  RH WIND       PRES   REMARKS
KINROSS        PTSUNNY   14   9  79 E12       29.98F WCI   0
6HR MIN TEMP:  -2; 6HR MAX TEMP:  14;

MACKINAC ISLAN PTSUNNY   19   9  65 S5        29.97F WCI  13
6HR MIN TEMP:   8; 6HR MAX TEMP:  19;

NEWBERRY       PTSUNNY   17  11  74 S14       29.93F WCI   3
6HR MIN TEMP:  -6; 6HR MAX TEMP:  17;

S. S. MARIE    CLOUDY    11   4  73 E9        30.00F WCI  -2
6HR MIN TEMP:  -2; 6HR MAX TEMP:  11; 6HR PCP: TRACE;

MUNISING         N/A     24  16  71 S12G17    29.87F WCI  13
6HR MIN TEMP:   6; 6HR MAX TEMP:  24;

$$
MIZ004>006-011>014-085-261900-
CENTRAL UPPER MICHIGAN

CITY           SKY/WX    TMP DP  RH WIND       PRES   REMARKS
MANISTIQUE     CLOUDY    22  13  70 SE14G23   29.92F WCI   9
6HR MIN TEMP:  19; 6HR MAX TEMP:  22;

ESCANABA       CLOUDY    23  16  74 S8G16     29.88F WCI  14
6HR MIN TEMP:   1; 6HR MAX TEMP:  23;

MENOMINEE      CLOUDY    23  18  80 S7        29.88F WCI  15
6HR MIN TEMP:   9; 6HR MAX TEMP:  23;

SAWYER-GWINN   CLOUDY    19  14  79 S16       29.82F WCI   5
$$
MIZ001>003-009>011-084-261900-
WESTERN UPPER MICHIGAN

CITY           SKY/WX    TMP DP  RH WIND       PRES   REMARKS
IRON MOUNTAIN  LGT SNOW  17  12  80 SE7       29.81F WCI   8
6HR MIN TEMP:   4; 6HR MAX TEMP:  17; 6HR PCP: TRACE;

HOUGHTON       FLURRIES  19  14  81 S13       29.75F WCI   6
6HR MIN TEMP:  11; 6HR MAX TEMP:  19; 6HR PCP: TRACE;

COPPER HARBOR    N/A     24  13  62 SW10G18   29.80F WCI  14
6HR MIN TEMP:  16; 6HR MAX TEMP:  25;

IRONWOOD       CLOUDY    19  16  86 S5        29.68S WCI  13
6HR MIN TEMP:  16; 6HR MAX TEMP:  19;

$$

ABBREVIATIONS USED IN REMARKS
   TC - TEMPERATURE IN CELSIUS
  WCI - WIND CHILL INDEX
   HX - HEAT INDEX
  VSB - VISIBILITY




USA.gov is the U.S. government's official web portal to all federal, state and local government web resources and services.